TimeEST,TemperatureF,Dew PointF,Humidity,Sea Level PressureIn,VisibilityMPH,Wind Direction,Wind SpeedMPH,Gust SpeedMPH,PrecipitationIn,Events,Conditions,WindDirDegrees,DateUTC
12:18 AM,57.2,53.6,88,29.53,10.0,SW,5.8,-,N/A,,Overcast,230,2012-12-11 05:18:00
12:50 AM,57.2,53.6,88,29.54,10.0,SW,4.6,-,N/A,,Overcast,230,2012-12-11 05:50:00
12:53 AM,57.0,53.1,87,29.55,10.0,SW,3.5,-,N/A,,Overcast,230,2012-12-11 05:53:00
1:15 AM,57.2,53.6,88,29.56,10.0,West,4.6,-,N/A,,Overcast,260,2012-12-11 06:15:00
1:53 AM,54.0,46.9,77,29.59,10.0,NW,12.7,21.9,N/A,,Overcast,310,2012-12-11 06:53:00
2:11 AM,53.6,44.6,72,29.60,10.0,NW,8.1,-,N/A,,Overcast,320,2012-12-11 07:11:00
2:53 AM,51.1,43.0,74,29.62,10.0,NW,8.1,-,N/A,,Overcast,310,2012-12-11 07:53:00
3:53 AM,50.0,39.0,66,29.65,10.0,NW,5.8,-,N/A,,Overcast,310,2012-12-11 08:53:00
4:53 AM,48.0,39.0,71,29.68,10.0,NW,4.6,-,N/A,,Overcast,310,2012-12-11 09:53:00
5:53 AM,48.0,37.9,68,29.70,10.0,NW,3.5,-,N/A,,Overcast,310,2012-12-11 10:53:00
6:53 AM,46.9,37.9,71,29.72,10.0,NNW,5.8,-,N/A,,Overcast,330,2012-12-11 11:53:00
7:49 AM,46.4,37.4,71,29.73,10.0,NNW,3.5,-,N/A,,Overcast,330,2012-12-11 12:49:00
7:53 AM,46.0,37.9,73,29.74,10.0,NW,4.6,-,N/A,,Overcast,310,2012-12-11 12:53:00
8:36 AM,46.4,39.2,76,29.79,10.0,WNW,6.9,-,N/A,,Overcast,290,2012-12-11 13:36:00
8:53 AM,46.0,39.9,79,29.81,10.0,West,6.9,-,0.00,Rain,Light Rain,260,2012-12-11 13:53:00
9:53 AM,46.0,37.0,71,29.83,10.0,WNW,11.5,-,0.00,,Overcast,290,2012-12-11 14:53:00
10:53 AM,48.9,35.1,59,29.83,10.0,West,10.4,-,N/A,,Mostly Cloudy,280,2012-12-11 15:53:00
11:53 AM,48.0,30.9,52,29.84,10.0,NW,15.0,20.7,N/A,,Partly Cloudy,310,2012-12-11 16:53:00
12:53 PM,46.9,27.0,46,29.86,10.0,NW,13.8,18.4,N/A,,Clear,310,2012-12-11 17:53:00
1:53 PM,48.0,28.0,46,29.88,10.0,West,11.5,-,N/A,,Clear,280,2012-12-11 18:53:00
2:53 PM,46.9,26.1,44,29.90,10.0,NW,9.2,-,N/A,,Clear,310,2012-12-11 19:53:00
3:53 PM,44.1,24.1,45,29.94,10.0,West,11.5,-,N/A,,Clear,280,2012-12-11 20:53:00
4:53 PM,42.1,24.1,49,29.99,10.0,WNW,8.1,-,N/A,,Clear,290,2012-12-11 21:53:00
5:53 PM,41.0,23.0,49,30.01,10.0,WNW,5.8,-,N/A,,Clear,290,2012-12-11 22:53:00
6:53 PM,39.9,24.1,53,30.05,10.0,WNW,11.5,16.1,N/A,,Clear,290,2012-12-11 23:53:00
7:53 PM,37.9,23.0,55,30.08,10.0,West,10.4,-,N/A,,Clear,280,2012-12-12 00:53:00
8:53 PM,37.0,21.0,52,30.10,10.0,West,9.2,-,N/A,,Clear,280,2012-12-12 01:53:00
9:53 PM,35.1,21.9,59,30.11,10.0,West,6.9,28.8,N/A,,Clear,270,2012-12-12 02:53:00
10:53 PM,35.1,21.0,57,30.13,10.0,WNW,5.8,-,N/A,,Clear,290,2012-12-12 03:53:00
11:53 PM,34.0,19.9,56,30.16,10.0,WNW,4.6,-,N/A,,Clear,290,2012-12-12 04:53:00